Regional Weather Roundup
Issued by NWS

Home | Current Version | Previous Version | Graphics & Text | Print | Product List | Glossary On
Versions: 1 2 3 4 5 6 7 8 9 10 11 12 13 14 15 16 17 18 19 20 21 22 23 24 25 26 27 28 29 30 31 32 33 34 35 36 37 38 39 40 41 42 43 44 45 46 47 48 49 50
000
ASUS45 KCYS 140710
RWRWY

WYOMING REGIONAL WEATHER ROUNDUP
NATIONAL WEATHER SERVICE CHEYENNE WY
1200 AM MST SUN FEB 14 2016

NOTE:  "FAIR" INDICATES FEW OR NO CLOUDS BELOW 12,000 FEET
WITH NO SIGNIFICANT WEATHER AND/OR OBSTRUCTIONS TO VISIBILITY.

WYZ001-140800-
YELLOWSTONE NATIONAL PARK

CITY           SKY/WX    TMP DP  RH WIND       PRES   REMARKS
LK YELLOWSTONE   N/A     23  17  78 VRB3      30.10F
W YELLOWSTONE  NOT AVBL

$$
WYZ002>013-054>058-071-098>099-140800-
NORTHERN WYOMING

CITY           SKY/WX    TMP DP  RH WIND       PRES   REMARKS
JACKSON        CLOUDY    30  21  69 S17G26    30.15F WCI  18
CODY           FAIR      39  16  38 SW14G23   29.97F WCI  31
GREYBULL       FAIR      29  20  69 E7        30.02F WCI  22
WORLAND        FAIR      31  23  72 S10       30.02F WCI  22
SHERIDAN       FAIR      27  19  72 S5        29.97F WCI  22
BUFFALO        FAIR      32  14  47 SW7       29.97F WCI  26
GILLETTE       FAIR      29  23  78 W13       29.96F WCI  19
HULETT         FAIR      34  28  80 W7        29.94F WCI  28
NEWCASTLE      FAIR      32  30  93 N12       29.97S WCI  23

$$
WYZ014>020-022>026-101>103-140800-
CENTRAL WYOMING

CITY           SKY/WX    TMP DP  RH WIND       PRES   REMARKS
BIG PINEY      FAIR      19  14  81 SW5       30.18R WCI  12
PINEDALE         N/A     21  16  79 MISG      30.16S
DUBOIS         FAIR      27  12  54 NW23G32   30.03F WCI  12
LANDER         FAIR      26  17  68 E6        30.03F WCI  19
RIVERTON       FAIR      33  15  47 W13       30.05F WCI  24
CASPER         FAIR      30  20  66 SW9       30.06F WCI  22
DOUGLAS        FAIR      29  23  78 NW10      30.05F WCI  20

$$
WYZ021-027>030-104>119-140800-
SOUTHERN WYOMING

CITY           SKY/WX    TMP DP  RH WIND       PRES   REMARKS
EVANSTON       FAIR      26  18  71 SW16      30.23S WCI  14
FORT BRIDGER   SUNNY     28  21  74 W13       30.24R WCI  18
ROCK SPRINGS   FAIR      29  21  72 S9        30.19S WCI  20
DIXON          FAIR      16  12  85 CALM      30.24F
RAWLINS        FAIR      25  16  68 W10       30.14F WCI  15
SARATOGA       FAIR      27  19  74 S7        30.17S WCI  19
LARAMIE        FAIR      28  16  60 NW6       30.10S WCI  22
CHEYENNE       FAIR      34  19  54 NW23G37   30.04F WCI  22
TORRINGTON     FAIR      32  24  72 W12       30.04S WCI  23
PINE BLUFFS    FAIR      32  23  69 NW15      30.06F WCI  22

$$



USA.gov is the U.S. government's official web portal to all federal, state and local government web resources and services.